Greenville, MS

1:43 AM CDT on October 23, 2017 (GMT -0500)
Mid Delta Regional

Weather History for KGLH - October, 2013

Change the Weather History Date:

Tuesday, October 29, 2013

  Actual Average Record
Temperature  
Mean Temperature 70 °F 60 °F  
Max Temperature 82 °F 72 °F 89 °F (1927)
Min Temperature 58 °F 49 °F 29 °F (1957)
Degree Days  
Heating Degree Days 0 6  
Month to date heating degree days 91 94  
Since 1 July heating degree days 91 100  
Cooling Degree Days 5 2  
Month to date cooling degree days 110 91  
Year to date cooling degree days 2229 2171  
Growing Degree Days 19 (Base 50)    
Moisture  
Dew Point 60 °F    
Average Humidity 76    
Maximum Humidity 100    
Minimum Humidity 51    
Precipitation  
Precipitation 0.00 in 0.10 in 1.85 in (1974)
Month to date precipitation 5.72 4.12  
Year to date precipitation 42.43 41.76  
Sea Level Pressure  
Sea Level Pressure 30.19 in    
Wind  
Wind Speed 7 mph (SSE)    
Max Wind Speed 16 mph    
Max Gust Speed 20 mph    
Visibility 5 miles    
Events Fog    
T = Trace of Precipitation, MM = Missing Value Source: NWS Daily Summary

Daily Weather History Graph

Daily Weather History Graph

Search for Another Location

Airport or City:

Trip Planner

Search our weather history database for the weather conditions in past years. The results will help you decide how hot, cold, wet, or windy it might be!

Date:

Astronomy

Oct. 29, 2013 Rise Set
Actual Time 7:20 AM CDT 6:14 PM CDT
Civil Twilight 6:54 AM CDT 6:40 PM CDT
Nautical Twilight 6:25 AM CDT 7:09 PM CDT
Astronomical Twilight 5:56 AM CDT 7:38 PM CDT
Moon 2:25 AM CDT (10/29) 3:15 PM CDT (10/29)
Length of Visible Light 11h 45m
Length of Day
10h 54m
Waning Crescent, 25% of the Moon is Illuminated
Oct 29
Waning Crescent
Nov 3
New
Nov 9
First Quarter
Nov 17
Full
Nov 25
Last Quarter

Hourly Weather History & Observations

Time (CDT) Temp. Heat Index Dew Point Humidity Pressure Visibility Wind Dir Wind Speed Gust Speed Precip Events Conditions
12:53 AM 61.0 °F - 59.0 °F 93% 30.21 in 6.0 mi East 4.6 mph - N/A   Scattered Clouds
1:53 AM 60.1 °F - 59.0 °F 96% 30.20 in 4.0 mi ESE 5.8 mph - N/A   Clear
2:27 AM 59.0 °F - 57.2 °F 94% 30.18 in 2.0 mi ESE 4.6 mph - N/A   Clear
2:41 AM 57.2 °F - 57.2 °F 100% 30.18 in 1.2 mi ESE 3.5 mph - N/A   Clear
2:47 AM 57.2 °F - 57.2 °F 100% 30.18 in 0.8 mi Calm Calm - N/A   Mist
2:53 AM 57.9 °F - 55.9 °F 93% 30.20 in 0.5 mi Calm Calm - N/A Fog Fog
3:01 AM 57.2 °F - 57.2 °F 100% 30.18 in 0.2 mi ESE 3.5 mph - N/A Fog Fog
3:20 AM 60.8 °F - 57.2 °F 88% 30.18 in 0.5 mi SE 3.5 mph - N/A Fog Fog
3:29 AM 60.8 °F - 57.2 °F 88% 30.17 in 0.2 mi SE 3.5 mph - N/A Fog Fog
3:53 AM 59.0 °F - 57.9 °F 96% 30.20 in 0.2 mi Calm Calm - N/A Fog Fog
4:05 AM 59.0 °F - 57.2 °F 94% 30.18 in 0.2 mi Calm Calm - 0.01 in Fog Fog
4:53 AM 60.1 °F - 59.0 °F 96% 30.21 in 0.2 mi Calm Calm - 0.01 in Fog Fog
5:53 AM 60.1 °F - 59.0 °F 96% 30.21 in 0.2 mi ESE 4.6 mph - N/A Fog Fog
6:33 AM 60.8 °F - 59.0 °F 94% 30.19 in 0.2 mi ESE 4.6 mph - N/A Fog Fog
6:48 AM 60.8 °F - 59.0 °F 94% 30.19 in 0.2 mi ESE 3.5 mph - N/A Fog Fog
6:53 AM 60.1 °F - 59.0 °F 96% 30.22 in 0.2 mi SE 3.5 mph - N/A Fog Fog
7:20 AM 60.8 °F - 60.8 °F 100% 30.20 in 0.2 mi Calm Calm - N/A Fog Fog
7:53 AM 61.0 °F - 60.1 °F 97% 30.22 in 0.2 mi SE 4.6 mph - N/A Fog Fog
8:30 AM 62.6 °F - 60.8 °F 94% 30.20 in 0.8 mi SSE 4.6 mph - N/A   Mist
8:39 AM 62.6 °F - 60.8 °F 94% 30.21 in 1.0 mi South 5.8 mph - N/A   Overcast
8:53 AM 63.0 °F - 62.1 °F 97% 30.23 in 2.5 mi South 6.9 mph - N/A   Mostly Cloudy
9:01 AM 62.6 °F - 62.6 °F 100% 30.21 in 3.0 mi South 8.1 mph - N/A   Mostly Cloudy
9:11 AM 64.4 °F - 62.6 °F 94% 30.21 in 4.0 mi South 8.1 mph - N/A   Mostly Cloudy
9:21 AM 64.4 °F - 62.6 °F 94% 30.22 in 5.0 mi SSE 8.1 mph - N/A   Mostly Cloudy
9:28 AM 64.4 °F - 62.6 °F 94% 30.22 in 5.0 mi SSE 6.9 mph - N/A   Mostly Cloudy
9:53 AM 66.9 °F - 64.0 °F 90% 30.25 in 7.0 mi South 6.9 mph - N/A   Mostly Cloudy
10:13 AM 69.8 °F - 64.4 °F 83% 30.22 in 9.0 mi South 8.1 mph - N/A   Scattered Clouds
10:53 AM 72.0 °F - 64.9 °F 78% 30.23 in 10.0 mi SSW 8.1 mph - N/A   Clear
11:53 AM 77.0 °F - 64.9 °F 66% 30.22 in 10.0 mi South 10.4 mph - N/A   Clear
12:53 PM - - - N/A% 30.18 in - North - - N/A   Unknown
1:53 PM 80.1 °F 81.2 °F 62.1 °F 54% 30.16 in 10.0 mi North - - N/A   Unknown
2:53 PM 81.0 °F 82.2 °F 63.0 °F 54% 30.14 in 10.0 mi South 12.7 mph - N/A   Clear
3:53 PM 81.0 °F 81.7 °F 61.0 °F 50% 30.14 in 10.0 mi SSE 11.5 mph - N/A   Partly Cloudy
4:53 PM 79.0 °F - 59.0 °F 50% 30.14 in 10.0 mi South 10.4 mph - N/A   Clear
5:53 PM 73.0 °F - 61.0 °F 66% 30.14 in 10.0 mi South 6.9 mph - N/A   Clear
6:53 PM 73.0 °F - 60.1 °F 64% 30.15 in 10.0 mi SSE 8.1 mph - N/A   Clear
7:53 PM 72.0 °F - 60.1 °F 66% 30.16 in 10.0 mi SSE 8.1 mph - N/A   Clear
8:53 PM 69.1 °F - 61.0 °F 75% 30.17 in 10.0 mi South 5.8 mph - N/A   Clear
9:53 PM 68.0 °F - 61.0 °F 78% 30.18 in 10.0 mi South 5.8 mph - N/A   Clear
10:53 PM 66.9 °F - 61.0 °F 81% 30.19 in 10.0 mi South 6.9 mph - N/A   Clear
11:53 PM 66.9 °F - 61.0 °F 81% 30.17 in 10.0 mi South 8.1 mph - N/A   Clear